Wetbulb
52.34 52.37 52.76 53.05 53.24 49.94 43.15 34.92 30.27 41.41 41.94 32.81 33.99 32.74 36.06 39.60 37.17 38.67 36.89 34.76 33.60 31.61 32.34 31.67 33.05 30.09 33.85 39.37 39.69 34.89 36.56 32.63 26.54 30.58 35.16 36.15 34.85 32.14 30.70 24.71 23.68 25.15 24.95 27.09
52.62 52.55 52.59 52.66 52.80 48.20 38.18 32.55 32.25 40.32 39.85 27.46 29.40 32.92 36.05 37.19 36.61 36.00 35.62 34.21 36.07 35.84 33.52 29.88 31.98 33.71 38.43 40.16 38.03 34.27 35.63 28.98 21.28 25.03 28.83 32.76 31.02 31.88 31.39 29.85 26.50 23.70 20.35 24.60
52.01 51.60 51.73 51.90 51.94 49.74 39.13 33.37 29.50 35.03 35.89 32.53 29.42 30.88 32.32 33.06 37.37 36.34 36.84 35.36 36.35 34.75 32.74 33.23 30.73 32.52 37.63 38.96 38.42 43.05 38.11 29.34 27.37 21.24 26.44 29.56 28.10 28.69 30.20 27.68 20.57 23.34 23.53 25.31
52.09 52.05 51.72 52.02 52.01 49.64 39.82 33.84 29.47 31.80 27.76 32.09 30.78 30.80 33.58 32.83 33.05 36.56 36.97 34.68 33.93 32.30 29.53 29.85 29.27 32.32 33.76 36.57 38.76 35.85 33.44 26.34 24.73 28.17 29.59 29.94 29.33 28.27 29.13 26.53 25.84 22.01 25.95 25.94
51.84 51.99 51.58 52.04 51.62 48.12 38.74 34.50 33.19 32.61 30.77 31.20 31.33 34.05 32.75 33.28 34.37 34.57 34.13 33.45 34.53 33.51 30.53 29.59 27.89 31.10 29.46 29.57 33.10 31.46 32.73 25.73 27.59 23.62 29.29 28.42 28.24 29.16 29.02 29.78 29.25 27.90 27.62 27.62
51.88 52.40 52.21 51.77 50.93 46.23 38.21 36.41 36.63 34.68 33.02 30.72 30.55 31.50 32.98 34.14 34.79 35.48 35.70 34.81 32.72 31.94 33.18 35.16 35.37 35.16 34.07 32.44 29.67 30.80 30.27 26.80 23.22 21.30 25.35 26.74 23.01 26.03 28.69 29.87 30.45 29.87 26.71 29.08
51.71 51.95 52.28 52.04 50.49 47.00 40.21 37.68 36.74 33.62 30.16 31.53 31.60 33.98 34.58 33.98 34.24 32.63 35.34 35.01 32.63 35.58 37.67 36.19 33.53 32.26 33.41 32.41 32.42 32.19 28.89 26.81 23.24 19.54 22.12 14.72 24.96 29.05 30.55 29.95 31.24 32.35 30.99 32.57
51.87 51.38 51.98 52.15 51.34 48.08 39.06 37.38 37.73 34.04 29.63 30.65 31.45 33.18 32.41 32.59 33.28 32.70 34.36 35.82 37.04 37.35 34.14 31.07 28.64 27.54 28.13 29.23 29.74 29.70 30.89 27.43 22.02 18.42 17.34 23.48 24.39 27.58 28.80 27.88 28.85 32.63 32.28 31.79
51.40 51.48 51.67 51.70 51.90 48.86 38.53 36.65 37.88 36.31 32.12 29.97 32.79 31.79 31.43 30.33 28.69 31.68 33.60 36.89 37.69 35.67 31.36 28.54 23.53 21.41 22.77 24.29 26.60 30.01 30.22 29.05 25.87 22.28 19.61 17.50 23.70 29.25 32.54 30.30 23.25 31.39 33.72 32.91
50.49 51.03 51.61 51.63 51.72 48.34 39.73 37.03 36.86 36.45 32.14 31.61 32.32 32.39 32.64 33.30 30.50 30.17 30.12 33.97 35.21 33.92 28.90 27.27 24.18 21.81 24.56 22.07 22.05 22.48 24.35 24.10 22.90 22.71 20.60 24.42 27.52 32.06 32.67 20.70 24.71 31.89 33.51 33.87
49.81 50.68 51.45 51.58 51.53 49.95 40.89 37.30 37.57 36.20 32.46 31.48 33.78 35.22 32.87 32.62 32.50 31.29 33.71 31.97 32.92 31.13 28.05 27.26 25.85 24.27 24.21 21.52 23.78 22.03 23.58 20.59 21.76 21.85 19.08 17.86 31.90 30.59 27.05 29.71 29.29 32.16 32.30 32.82
49.49 50.46 52.05 51.66 50.83 48.00 42.66 36.40 38.52 37.68 35.23 33.69 34.89 35.75 35.01 35.23 35.06 35.12 32.46 32.80 32.70 33.05 29.48 27.63 26.92 26.33 22.51 22.20 21.89 23.46 23.03 26.47 23.68 25.82 25.53 30.30 31.77 31.68 32.05 32.20 32.69 32.32 32.39 33.58
49.15 49.73 51.76 50.85 50.23 47.96 42.25 35.92 36.30 36.66 33.46 33.37 33.04 33.34 34.59 36.06 35.58 36.43 33.89 33.32 34.79 33.31 33.35 30.82 29.08 27.39 27.53 23.40 22.55 21.32 25.94 27.56 26.85 27.95 26.86 29.29 31.49 32.27 32.98 33.04 32.77 33.39 33.04 34.02
48.65 49.53 51.02 50.87 49.21 46.04 41.42 35.73 35.63 37.28 35.11 31.25 32.33 35.86 32.75 35.21 35.94 35.48 35.30 34.80 35.13 33.96 33.10 30.47 29.22 28.46 29.45 25.66 26.17 24.68 27.80 28.46 26.78 26.18 29.34 28.74 31.11 31.20 32.54 33.45 33.74 33.40 32.69 33.31
47.99 49.06 49.85 49.86 48.35 46.53 40.27 35.71 35.33 36.58 37.14 30.68 31.38 32.99 33.65 34.62 35.02 34.82 34.25 34.57 33.30 31.88 30.20 27.63 28.70 29.11 27.95 26.44 25.11 23.92 28.60 28.56 27.12 27.19 30.70 30.21 29.85 31.26 32.69 33.33 33.29 33.78 32.69 30.80
47.66 48.31 49.01 49.17 48.30 45.55 39.20 34.86 37.20 36.65 37.03 30.80 28.35 32.74 30.04 31.55 32.66 32.91 31.70 33.56 32.39 31.43 30.50 29.25 29.47 29.84 30.07 24.76 23.20 29.08 29.11 30.20 31.55 30.81 28.60 30.22 31.40 32.04 30.42 32.39 33.01 33.19 32.91 32.34
47.45 48.09 48.81 47.65 47.47 39.14 37.19 34.83 37.07 40.11 36.72 31.72 27.71 26.67 31.24 31.40 31.56 31.50 31.70 31.35 30.69 30.73 29.42 28.28 27.61 28.17 29.69 25.92 23.82 30.70 30.71 31.14 30.94 31.02 30.20 30.19 30.94 32.00 32.28 32.34 33.25 35.66 31.93 31.03
47.38 48.04 49.16 48.04 45.43 41.35 36.23 36.32 42.45 37.87 33.78 31.64 20.39 23.30 26.59 32.09 28.94 28.85 29.67 29.44 28.85 29.31 29.20 27.77 27.41 27.65 26.69 25.24 29.48 28.63 30.70 30.73 30.10 30.64 30.97 30.49 29.66 30.67 30.48 29.84 30.28 29.18 28.38 27.73
47.60 48.43 47.12 39.91 36.90 33.55 34.46 42.75 39.44 34.47 32.32 25.13 22.42 20.01 20.74 29.83 28.45 29.33 28.80 29.07 25.56 29.02 27.02 26.80 27.79 25.57 23.79 29.67 29.71 30.16 30.65 30.50 30.47 28.67 29.34 29.67 29.86 29.97 29.12 28.89 28.59 28.38 27.42 25.75
48.19 41.55 36.33 32.76 34.95 41.24 39.86 33.95 31.08 28.57 28.34 27.20 23.41 23.72 22.13 27.48 26.88 27.40 27.03 27.29 26.07 18.88 26.62 27.63 25.61 25.43 30.50 31.56 31.19 31.20 30.95 30.70 29.34 27.42 26.57 27.93 27.27 28.62 28.18 28.38 28.43 28.51 27.17 25.37
41.80 35.57 33.14 35.24 39.80 33.97 29.93 26.55 25.63 26.45 24.10 27.32 25.05 24.27 23.46 28.68 24.46 26.54 29.11 21.32 22.56 16.37 21.51 23.29 21.32 22.53 26.46 29.64 29.38 30.25 29.40 28.38 28.99 30.71 30.76 31.33 30.50 29.10 28.62 27.73 28.41 28.01 26.28 24.63
41.46 38.13 36.04 33.19 30.33 26.34 22.85 19.64 23.03 23.03 22.66 24.12 23.06 25.36 26.96 26.99 28.46 27.22 26.43 21.99 20.06 16.73 22.42 20.67 20.24 24.25 28.05 28.21 28.21 28.35 27.93 27.86 27.87 29.02 30.48 30.43 30.56 30.07 29.05 28.26 27.47 25.60 25.16 25.40
37.94 33.59 30.46 28.69 25.46 18.38 20.40 19.48 19.35 15.56 22.84 22.54 24.15 22.76 25.75 26.47 28.18 25.62 23.22 18.55 22.31 22.62 14.52 18.12 21.30 25.43 26.33 26.24 25.99 27.07 27.33 27.03 27.96 29.13 29.20 28.50 27.58 28.11 27.75 26.70 24.91 24.38 23.69 23.36
33.29 29.69 24.97 24.84 17.45 22.14 24.38 24.29 25.41 26.10 24.55 24.59 24.20 22.68 23.82 26.25 24.19 24.41 16.49 23.77 22.35 11.48 16.18 17.94 21.71 23.98 25.94 25.69 26.28 26.53 26.00 26.44 24.22 24.94 27.30 26.81 25.12 23.88 24.04 25.82 24.18 23.53 22.54 22.83
31.75 28.36 23.82 22.30 25.36 20.10 21.08 20.65 24.84 25.10 26.85 26.42 24.85 23.26 24.27 21.54 21.17 23.68 20.20 15.71 12.51 15.90 17.55 22.79 23.23 25.15 24.96 25.69 25.68 26.37 26.91 26.65 25.56 23.99 21.49 19.89 21.66 21.97 21.29 22.84 23.44 22.99 22.55 21.94
30.94 27.22 21.00 23.13 19.61 19.42 19.89 21.12 23.29 26.18 27.34 25.11 25.80 20.63 17.70 18.94 20.16 16.36 16.60 15.30 14.85 19.70 19.91 23.88 21.82 25.45 25.83 25.46 25.77 26.81 27.30 26.69 26.06 24.77 24.72 24.57 22.90 22.41 21.80 21.58 21.39 21.46 21.66 20.27
31.26 29.63 27.35 25.20 23.67 27.22 27.16 26.76 26.99 28.70 27.81 24.72 22.29 17.57 20.65 20.64 12.61 15.31 22.02 20.40 22.05 23.41 22.65 20.27 23.58 27.37 26.76 26.07 25.99 27.14 27.98 26.98 25.97 24.48 23.65 22.42 22.94 20.32 18.69 19.35 20.31 19.96 20.35 19.28
MSLP
1018.56 1018.16 1017.77 1017.17 1016.74 1016.16 1016.17 1017.32 1017.34 1015.73 1015.25 1016.16 1017.77 1018.65 1018.60 1018.04 1017.72 1017.33 1017.19 1017.07 1017.29 1017.86 1018.20 1018.29 1018.25 1018.12 1017.82 1017.50 1017.70 1017.96 1018.01 1018.09 1017.43 1015.98 1015.25 1015.10 1015.28 1015.75 1016.14 1016.53 1016.35 1016.27 1016.21 1015.75
1019.01 1018.41 1017.92 1017.45 1016.99 1016.81 1017.35 1018.54 1018.62 1016.76 1016.43 1018.58 1019.35 1019.12 1018.67 1018.29 1017.73 1017.45 1017.20 1017.12 1017.08 1017.47 1017.84 1018.09 1018.05 1017.69 1017.02 1017.25 1017.60 1017.55 1017.73 1017.98 1017.67 1016.35 1015.98 1015.50 1015.62 1015.81 1016.15 1016.44 1016.71 1016.62 1016.51 1015.96
1019.43 1018.86 1018.24 1017.61 1017.16 1017.05 1017.74 1019.13 1019.56 1018.96 1019.25 1020.33 1020.18 1019.80 1019.12 1018.45 1017.90 1017.60 1017.37 1017.34 1016.93 1017.35 1017.83 1017.86 1017.84 1017.53 1016.97 1017.03 1017.23 1017.33 1017.61 1018.05 1018.27 1017.91 1017.22 1016.88 1016.36 1016.16 1016.20 1016.33 1016.71 1016.52 1016.36 1016.07
1019.56 1019.09 1018.55 1017.95 1017.27 1017.21 1017.99 1019.86 1021.64 1021.46 1021.04 1020.69 1020.63 1020.03 1019.46 1018.88 1018.50 1017.82 1017.48 1017.67 1017.90 1017.89 1018.04 1018.22 1018.22 1017.86 1017.42 1017.14 1017.14 1017.36 1017.83 1018.32 1018.31 1017.76 1017.34 1016.92 1016.44 1016.22 1016.10 1016.03 1016.00 1016.02 1015.90 1015.95
1019.73 1019.24 1018.83 1018.24 1017.76 1017.23 1018.54 1020.57 1021.29 1021.44 1021.35 1020.93 1020.42 1020.21 1020.23 1019.66 1019.14 1018.76 1018.46 1018.44 1018.36 1018.04 1018.44 1018.76 1018.61 1018.48 1018.17 1017.88 1017.62 1017.78 1018.20 1018.44 1018.47 1017.93 1017.06 1016.77 1016.23 1015.55 1015.46 1015.61 1015.68 1015.54 1015.56 1015.52
1020.05 1019.66 1019.00 1018.54 1018.21 1017.82 1019.21 1020.72 1020.93 1020.94 1021.58 1021.27 1021.03 1021.34 1020.74 1020.21 1019.64 1019.34 1019.11 1019.01 1018.79 1018.60 1018.66 1018.64 1018.43 1018.40 1018.40 1018.42 1018.49 1018.34 1018.58 1018.84 1019.09 1018.45 1017.37 1016.62 1015.92 1014.76 1014.88 1014.99 1015.06 1015.16 1015.32 1015.11
1020.52 1019.98 1019.41 1018.84 1018.52 1018.39 1018.83 1020.10 1020.53 1021.00 1022.16 1021.78 1021.68 1021.25 1020.75 1020.30 1019.88 1019.49 1019.01 1018.76 1018.56 1018.52 1018.32 1018.35 1018.51 1018.51 1018.33 1018.32 1018.25 1018.50 1018.81 1019.34 1019.64 1019.19 1017.99 1016.86 1014.92 1014.46 1014.52 1014.67 1014.49 1014.49 1014.74 1014.87
1020.80 1020.48 1020.05 1019.47 1018.84 1019.03 1019.39 1019.77 1020.13 1020.98 1021.88 1021.98 1021.71 1021.42 1021.11 1020.61 1020.27 1019.90 1019.43 1018.86 1018.64 1018.51 1018.25 1018.45 1018.62 1018.59 1018.48 1018.28 1018.27 1018.41 1018.71 1019.29 1019.78 1019.60 1018.73 1016.22 1014.69 1014.45 1014.44 1014.50 1013.97 1013.80 1014.40 1014.87
1021.03 1020.71 1020.51 1020.01 1019.46 1019.15 1019.67 1020.01 1019.72 1020.25 1021.36 1021.66 1021.26 1021.33 1021.21 1021.08 1020.63 1020.16 1019.51 1018.99 1018.73 1018.68 1019.21 1019.51 1019.84 1019.75 1019.35 1019.04 1018.41 1018.40 1018.79 1018.94 1019.52 1019.66 1018.80 1016.56 1014.62 1014.21 1014.11 1014.22 1014.10 1013.72 1014.25 1014.88
1021.42 1020.77 1020.46 1020.37 1019.88 1019.56 1019.94 1020.23 1020.35 1020.12 1021.04 1021.16 1021.12 1020.92 1020.77 1020.71 1020.77 1020.59 1019.98 1019.46 1019.21 1019.24 1020.13 1020.60 1020.95 1020.71 1020.25 1020.02 1019.45 1018.87 1019.02 1019.35 1019.45 1019.18 1018.32 1015.91 1014.44 1014.26 1014.36 1014.51 1014.29 1013.46 1013.84 1014.37
1021.39 1021.13 1020.56 1020.36 1020.14 1019.65 1019.83 1020.36 1020.56 1021.17 1020.99 1020.82 1020.53 1020.33 1020.33 1020.61 1020.65 1020.40 1019.93 1020.27 1020.10 1020.11 1020.68 1021.17 1021.27 1021.20 1020.64 1020.51 1019.45 1018.82 1018.97 1019.15 1019.14 1018.78 1017.91 1015.92 1014.29 1014.73 1014.60 1013.60 1013.49 1013.54 1013.87 1014.19
1021.25 1021.08 1020.75 1020.31 1020.17 1020.03 1019.86 1020.37 1020.26 1020.59 1021.09 1021.07 1020.47 1019.88 1019.57 1019.56 1019.55 1019.61 1020.05 1020.25 1020.21 1020.29 1020.80 1021.43 1021.49 1021.37 1021.14 1020.76 1020.13 1018.79 1018.58 1017.53 1017.57 1017.29 1015.31 1013.90 1013.89 1013.51 1013.26 1013.42 1013.69 1013.83 1014.01 1014.16
1021.36 1020.90 1020.69 1020.53 1020.22 1020.11 1020.11 1020.60 1020.70 1020.64 1021.01 1020.95 1020.65 1019.80 1019.49 1019.77 1020.00 1020.04 1020.37 1020.40 1020.04 1020.30 1020.23 1020.79 1021.21 1021.30 1020.70 1020.62 1019.95 1018.76 1017.70 1017.25 1017.08 1016.38 1013.90 1013.59 1013.39 1013.12 1013.22 1013.40 1013.57 1013.58 1013.83 1014.12
1021.09 1021.04 1020.68 1020.48 1020.35 1020.28 1020.29 1020.63 1020.90 1020.91 1021.11 1021.07 1020.11 1019.68 1019.72 1019.60 1019.79 1020.09 1020.27 1020.44 1020.46 1020.52 1020.76 1021.02 1021.24 1021.11 1020.18 1019.90 1019.24 1018.89 1017.44 1017.30 1016.39 1015.58 1014.00 1013.47 1013.14 1012.83 1012.69 1013.08 1013.34 1013.70 1014.05 1014.33
1020.75 1020.85 1020.88 1020.63 1020.29 1020.11 1020.34 1020.80 1020.87 1020.83 1021.03 1021.03 1020.17 1019.70 1019.61 1019.68 1020.09 1020.41 1020.50 1020.59 1020.83 1021.21 1021.44 1021.49 1021.24 1020.42 1020.24 1019.50 1019.33 1017.49 1015.93 1015.12 1015.23 1014.17 1013.09 1013.17 1012.72 1012.44 1012.38 1012.89 1013.09 1013.40 1013.92 1014.46
1020.63 1020.44 1020.67 1020.72 1020.51 1020.29 1020.32 1020.67 1021.04 1020.84 1020.80 1021.05 1020.56 1019.82 1019.55 1019.84 1020.12 1020.43 1020.97 1021.16 1021.22 1021.24 1021.29 1021.03 1020.25 1019.80 1019.67 1019.48 1018.22 1014.39 1013.90 1013.48 1013.29 1013.14 1012.98 1012.99 1012.80 1012.77 1012.82 1013.21 1013.49 1013.86 1014.22 1014.48
1020.24 1020.45 1020.23 1020.57 1020.51 1020.68 1020.60 1020.63 1020.44 1020.43 1020.89 1021.30 1021.19 1020.08 1019.84 1019.72 1020.11 1020.49 1020.65 1021.00 1021.37 1021.48 1021.18 1020.84 1020.46 1020.16 1019.86 1018.97 1016.89 1013.27 1012.96 1012.79 1012.83 1012.79 1013.04 1012.94 1012.73 1012.67 1012.92 1013.29 1013.49 1013.78 1014.21 1014.65
1019.73 1020.04 1020.28 1020.15 1020.58 1020.66 1020.56 1020.24 1020.00 1020.21 1020.90 1021.51 1021.89 1020.92 1020.33 1019.69 1020.17 1020.67 1020.72 1020.91 1021.24 1021.20 1020.82 1020.62 1020.27 1020.07 1019.76 1017.68 1013.16 1012.89 1012.55 1012.39 1012.40 1012.34 1012.42 1012.47 1012.61 1012.81 1013.17 1013.56 1014.09 1014.58 1015.04 1015.35
1019.66 1019.79 1020.08 1020.60 1020.77 1020.93 1020.25 1020.15 1020.34 1020.57 1021.21 1021.49 1021.87 1021.32 1020.36 1019.93 1020.10 1020.43 1020.95 1020.86 1021.19 1020.79 1020.70 1020.42 1020.15 1019.13 1017.50 1012.99 1012.61 1012.47 1012.24 1012.27 1012.15 1012.22 1012.25 1012.41 1012.70 1012.98 1013.41 1013.87 1014.24 1014.54 1014.81 1015.14
1019.58 1020.03 1020.41 1020.84 1020.39 1019.97 1020.16 1020.05 1020.59 1020.96 1020.91 1021.21 1021.11 1020.40 1020.56 1020.33 1020.59 1020.50 1020.79 1021.05 1021.10 1021.10 1020.11 1019.86 1019.50 1016.70 1013.23 1011.81 1011.31 1011.53 1011.87 1012.13 1012.43 1012.64 1012.64 1012.62 1012.60 1012.78 1012.92 1013.05 1013.46 1014.00 1014.66 1015.36
1019.36 1019.96 1020.40 1020.20 1020.33 1020.48 1020.43 1020.74 1021.11 1021.37 1021.41 1020.22 1020.00 1020.07 1020.33 1020.16 1020.51 1020.41 1020.34 1020.66 1021.10 1021.32 1020.33 1020.00 1018.40 1015.77 1012.25 1010.73 1010.81 1010.99 1011.29 1011.45 1011.64 1011.75 1011.63 1011.66 1011.69 1012.14 1012.65 1013.20 1013.55 1014.08 1014.79 1015.56
1018.49 1018.79 1019.76 1020.44 1020.70 1021.17 1021.32 1020.80 1021.15 1020.98 1020.33 1019.98 1020.09 1019.90 1019.91 1020.24 1020.15 1020.35 1020.92 1020.77 1020.89 1020.66 1020.28 1020.07 1017.76 1013.06 1011.11 1010.94 1010.87 1010.96 1011.16 1011.17 1011.05 1011.18 1011.46 1011.60 1011.83 1012.03 1012.45 1013.05 1013.72 1014.30 1014.79 1015.11
1018.52 1018.99 1019.83 1020.63 1021.03 1021.55 1020.85 1019.79 1019.46 1019.38 1018.41 1018.93 1019.62 1020.50 1020.41 1020.39 1020.39 1020.75 1020.93 1020.96 1020.70 1020.09 1020.18 1018.34 1014.45 1011.54 1011.05 1011.05 1011.03 1010.90 1010.84 1010.88 1011.00 1011.06 1011.53 1012.03 1012.33 1012.71 1013.17 1013.78 1013.99 1014.13 1014.58 1015.24
1018.74 1019.13 1019.68 1019.69 1019.51 1018.71 1017.11 1016.51 1015.85 1015.97 1017.00 1018.00 1018.58 1019.47 1020.16 1020.84 1020.77 1020.78 1021.14 1020.53 1020.50 1020.22 1019.36 1015.96 1012.65 1011.07 1010.58 1010.57 1010.88 1011.19 1011.10 1011.21 1011.34 1011.59 1011.59 1012.08 1012.64 1012.93 1012.85 1013.18 1014.11 1014.89 1015.50 1015.93
1017.83 1017.98 1017.38 1016.53 1015.82 1016.13 1015.92 1016.11 1016.21 1016.30 1016.14 1016.60 1018.34 1019.24 1019.37 1019.90 1020.76 1020.95 1020.96 1020.77 1020.09 1018.82 1015.92 1013.41 1011.19 1010.73 1010.64 1010.58 1010.72 1011.08 1011.31 1011.57 1011.72 1011.83 1012.33 1012.59 1012.62 1013.05 1013.40 1013.62 1013.90 1014.48 1015.21 1015.53
1016.66 1016.26 1015.50 1015.12 1015.86 1016.01 1015.96 1016.06 1016.29 1016.14 1016.16 1016.29 1016.93 1018.74 1019.49 1019.51 1018.94 1019.71 1019.45 1019.38 1017.83 1015.04 1013.74 1012.24 1011.50 1010.95 1010.78 1010.73 1010.60 1010.82 1011.22 1011.62 1011.90 1011.93 1011.97 1012.36 1012.88 1013.26 1013.56 1013.89 1014.14 1014.35 1014.66 1015.42
1014.63 1014.01 1013.63 1013.84 1013.94 1014.23 1014.42 1014.36 1015.06 1015.59 1015.79 1015.97 1016.48 1017.68 1017.70 1018.52 1018.32 1017.37 1016.41 1015.52 1013.64 1012.71 1012.09 1011.64 1011.21 1010.75 1010.56 1010.53 1010.56 1010.78 1011.17 1011.58 1011.96 1012.05 1012.18 1012.32 1012.77 1013.16 1013.48 1013.88 1014.02 1014.50 1014.37 1014.54
Wind_Speed
7 8 9 10 13 12 9 3 6 6 5 7 4 4 3 2 3 1 1 1 3 3 3 2 1 2 4 5 5 3 5 2 5 7 1 2 1 1 2 3 3 1 1 3
10 8 8 8 9 10 3 4 2 5 5 6 4 3 3 3 4 3 1 1 2 2 3 2 2 3 3 6 5 4 4 1 4 7 5 4 3 3 3 2 2 2 2 4
13 12 10 8 5 4 5 4 5 6 6 1 3 4 5 3 1 2 3 3 3 3 3 1 1 1 1 5 4 2 2 1 4 5 6 1 6 5 4 3 3 3 3 2
18 15 13 11 3 6 5 4 0 2 4 5 4 1 4 5 7 6 8 5 6 2 3 2 2 3 5 2 3 2 3 3 2 6 7 4 5 4 5 2 2 3 4 4
19 19 17 14 0 7 6 4 3 2 1 2 5 8 7 7 5 6 6 5 5 6 4 1 2 1 1 2 4 2 0 3 1 5 3 3 5 6 3 1 1 2 3 4
17 20 20 17 7 3 4 0 1 3 5 5 4 4 4 6 3 1 2 2 1 3 1 5 7 5 3 5 3 2 0 1 3 6 4 6 6 5 3 2 4 4 5 3
14 17 20 20 16 6 4 3 3 5 2 3 1 3 1 3 2 1 3 1 1 2 3 3 2 4 6 4 5 3 2 2 2 5 5 3 5 1 2 4 6 5 3 4
11 13 17 20 16 13 3 3 4 4 2 2 2 3 2 3 4 2 2 2 2 3 4 3 5 4 3 1 2 3 3 4 1 2 2 8 1 3 4 4 6 7 6 3
11 10 13 16 17 8 3 2 0 4 6 4 5 1 1 0 3 5 3 3 4 5 4 4 1 3 2 4 8 3 4 3 4 1 0 5 4 2 2 2 6 4 5 5
13 9 10 12 14 11 3 2 2 3 4 4 6 4 4 4 2 2 4 4 5 3 3 3 1 4 1 3 3 2 2 2 4 3 4 9 5 4 3 2 7 4 5 7
13 13 9 9 12 10 5 3 2 2 2 3 7 8 6 2 2 3 3 3 2 3 3 2 2 3 3 2 5 3 3 3 4 2 2 8 6 3 7 6 1 3 4 4
11 12 11 7 9 10 2 0 0 2 1 3 3 5 3 3 2 5 1 3 3 4 4 1 2 3 1 3 5 1 4 8 5 10 9 4 7 6 4 4 4 4 4 5
11 10 8 7 8 8 3 1 1 3 2 4 2 6 1 3 2 1 2 3 2 2 3 4 2 5 4 4 7 3 5 3 5 1 4 9 10 6 6 7 6 4 3 5
9 11 8 5 6 7 3 1 1 3 2 1 5 1 3 1 4 3 2 1 3 4 2 2 2 3 3 4 4 5 5 6 5 8 10 7 10 9 6 7 6 5 3 6
7 11 10 7 4 1 3 1 1 1 4 3 5 2 2 2 5 4 2 2 2 1 1 2 5 2 2 2 1 6 8 9 7 8 7 3 6 5 6 9 9 9 8 5
6 7 10 9 9 3 3 3 1 1 1 3 4 2 2 3 3 4 2 1 1 2 3 4 3 2 2 2 5 9 7 4 5 4 1 5 5 5 1 4 5 5 6 5
6 7 6 6 8 2 2 4 3 2 1 2 5 4 1 2 3 1 2 2 2 2 2 3 1 2 3 3 7 6 8 8 7 7 3 5 5 5 6 4 6 8 5 4
6 5 6 3 1 2 3 2 3 4 4 3 2 6 2 5 3 3 1 3 1 2 3 1 2 1 0 9 11 5 6 7 7 8 9 3 1 4 5 3 5 5 5 5
5 3 2 3 1 2 3 2 5 2 4 3 3 4 6 2 1 2 1 1 1 1 3 3 3 3 10 11 7 7 7 5 4 0 5 6 6 6 6 6 6 7 8 7
6 4 3 3 4 3 2 3 3 4 2 1 4 2 2 4 0 1 3 1 2 2 3 3 4 8 13 13 11 7 6 7 5 4 4 5 5 8 9 11 7 6 6 5
2 3 4 1 4 2 2 1 3 1 4 4 3 4 3 2 3 3 2 3 1 1 5 3 4 7 7 6 4 4 6 7 9 9 5 7 6 8 8 6 8 7 7 6
5 5 4 2 3 2 2 4 2 5 7 1 3 4 3 1 1 3 2 3 3 6 1 0 6 8 7 3 5 7 6 6 8 9 8 7 7 6 7 6 7 6 7 7
3 3 3 3 2 1 8 10 5 3 6 5 4 1 1 2 1 2 2 2 6 2 1 7 9 4 4 5 4 7 4 3 3 5 2 1 1 2 4 6 5 8 7 6
3 6 6 8 6 9 9 5 5 4 5 7 4 4 4 1 2 2 3 2 2 2 3 10 5 6 4 3 2 2 3 3 3 3 4 5 4 4 5 7 6 7 7 6
5 5 9 10 5 2 1 1 1 2 5 7 5 4 2 3 2 1 3 3 5 7 8 5 4 4 2 2 1 4 5 4 4 3 3 4 6 5 4 5 7 7 6 6
4 4 3 1 2 3 2 2 2 3 5 3 4 5 4 4 6 5 9 5 9 7 6 4 2 2 2 3 3 4 4 4 5 5 6 6 7 7 6 6 6 7 8 7
6 7 3 3 1 3 4 5 4 5 4 4 4 7 9 4 2 5 7 9 6 5 4 3 5 4 3 4 3 3 4 5 6 5 6 5 5 6 5 7 7 7 6 7
Wind_Direction
4 358 342 349 351 352 51 47 39 316 357 55 28 55 6 342 21 306 37 98 100 128 167 148 46 226 228 173 152 204 208 192 271 233 34 360 129 173 226 147 291 252 215 291
353 358 343 346 3 24 82 66 295 320 45 66 16 345 28 359 9 358 9 81 103 147 156 66 210 230 269 173 163 229 177 252 337 353 9 11 39 309 236 193 49 262 123 294
355 349 343 339 355 85 78 65 31 343 51 68 54 11 8 49 348 81 59 33 61 96 75 168 328 283 278 181 214 184 122 159 178 194 231 241 307 318 328 161 118 198 217 278
350 341 339 335 346 115 90 31 333 204 349 352 18 20 2 24 11 352 29 46 36 333 51 37 9 324 325 228 315 106 137 251 183 247 243 245 248 263 329 99 233 157 202 194
356 348 340 339 22 107 79 96 108 54 356 301 15 11 356 22 356 26 357 58 356 33 67 346 311 336 30 301 324 204 238 264 201 282 230 278 273 273 293 246 164 83 163 247
3 357 351 345 318 48 99 125 38 102 319 6 55 341 339 345 316 71 127 242 255 30 252 227 236 224 249 241 304 288 290 113 50 272 351 326 319 219 204 246 198 175 196 236
0 2 0 354 349 343 115 174 116 76 347 58 138 328 302 346 318 249 304 360 118 227 286 213 227 225 240 247 262 207 160 92 82 265 358 4 249 167 184 227 253 222 255 231
355 360 4 6 358 3 52 152 123 117 106 179 301 336 336 321 307 320 288 307 276 326 12 30 1 344 336 203 181 218 177 135 42 92 241 281 312 214 177 174 286 197 195 173
344 359 359 5 7 351 48 316 96 112 121 241 170 184 2 348 325 349 306 328 315 36 56 48 64 248 229 304 328 127 91 72 124 110 317 252 240 203 188 133 296 186 169 169
329 342 355 353 9 27 82 298 331 82 128 222 154 188 181 155 158 204 279 318 4 40 44 45 352 289 260 303 285 273 314 359 190 192 245 285 232 184 158 125 235 181 185 185
327 325 339 352 1 19 95 265 44 33 160 232 185 181 156 140 188 170 250 45 327 51 76 143 217 199 248 306 240 214 208 154 215 122 237 289 164 98 173 216 227 199 203 203
326 326 325 1 17 16 81 15 61 86 133 261 237 234 245 227 206 151 164 198 172 195 101 203 121 245 233 190 275 198 255 192 192 184 216 226 208 205 214 168 185 212 200 200
318 320 331 358 13 21 91 185 321 62 67 316 350 240 262 83 189 81 151 284 181 186 180 159 175 238 136 207 237 241 250 168 226 13 254 231 229 230 217 191 215 219 226 180
313 310 316 348 13 31 69 83 193 97 99 176 282 13 266 136 138 135 135 161 52 87 79 143 176 221 160 234 261 213 211 145 211 262 279 278 264 239 213 204 199 174 157 178
299 305 313 314 335 67 100 115 242 210 137 224 275 310 248 143 145 167 145 135 121 134 113 149 226 220 154 212 302 238 185 199 181 227 237 209 264 305 199 188 193 190 163 153
276 297 311 316 314 338 46 351 350 322 169 78 307 279 157 130 149 157 194 202 161 158 180 227 256 299 159 244 247 248 212 223 203 245 302 225 288 297 239 213 196 170 175 170
254 282 296 317 337 85 169 196 205 149 89 63 314 307 275 133 108 84 132 115 230 184 241 231 240 265 183 244 242 232 216 224 234 220 182 265 207 238 182 172 168 163 142 152
225 263 284 270 20 7 301 253 135 117 95 82 234 269 333 175 165 189 155 148 86 231 256 276 203 360 189 257 242 260 258 275 267 242 214 233 22 127 158 120 127 136 153 154
208 258 91 40 107 225 239 140 74 72 137 213 152 180 246 131 131 112 73 122 218 171 222 238 145 206 224 232 234 234 225 217 249 220 195 184 196 196 165 152 165 170 191 186
150 85 88 272 228 233 98 33 26 9 277 320 221 68 230 118 132 180 109 76 225 250 240 123 212 257 260 261 236 234 246 251 198 175 238 213 213 190 188 199 193 190 174 159
134 155 218 227 326 18 41 227 136 330 284 200 226 181 155 223 118 195 216 181 144 307 252 176 252 263 244 248 232 211 250 241 224 228 262 207 197 189 190 192 187 173 165 171
178 147 91 50 60 30 120 216 317 180 232 236 163 204 159 173 343 92 253 159 90 235 119 163 261 252 249 240 252 279 277 267 249 211 221 234 229 212 182 164 160 161 160 163
62 63 94 109 237 338 204 203 217 209 190 178 154 76 66 72 95 58 96 140 225 83 92 234 234 255 276 262 268 288 256 290 226 166 173 220 244 125 140 141 149 166 164 162
172 164 213 192 207 235 201 204 175 177 128 147 130 108 120 347 68 156 126 251 46 338 256 236 245 237 225 216 257 241 271 204 184 162 171 175 142 163 165 166 145 136 155 165
197 178 218 208 218 267 238 37 89 194 147 132 102 59 110 133 109 216 51 6 257 219 234 242 238 226 210 254 238 233 235 214 209 171 161 179 176 174 138 148 152 153 154 166
210 238 272 184 88 249 189 167 257 182 153 93 76 122 103 230 148 135 210 172 230 249 225 241 278 224 231 247 242 235 224 214 219 198 193 179 174 174 168 152 168 171 164 177
208 231 218 181 163 212 182 150 186 163 148 177 131 150 200 113 104 231 186 209 221 232 258 219 219 209 216 218 229 225 207 213 222 219 204 196 158 132 142 180 197 190 183 168